MiSS Donna — WDG2382 — position and weather

sailwx.info

Track history (hours):
 
Tides and Currents Weather Stations Pressure Air Temp Water Temp Dewpoint Dewpoint Depression Visibility Wind Speed Wind Dir Waves Ship Positions

MiSS Donna

Owner: OCEAN MARINE BOAT RENTALS,LLC, MORGAN CITY, LA. More information available from US FCC via Universal Licensing System and Coast Guard Vessel Documentation Center.

Last reported at 2014-Nov-26 05:33 UTC. Time now 2014-Nov-26 06:31 UTC.
Position N 39°13' W 076°35'.

Length 21 m; draft 2.7 m.

Type: Towing. MMSI: 367515090.

Date/timePositionNaut miles runAvg speedWind from/ knotsBaromVisibWave heightAir tempDewpointWater temp
2014-Nov-26 05:33N 39°13' W 076°35'0 0.0
2014-Nov-26 04:09N 39°13' W 076°35'0 0.0
2014-Nov-26 03:27N 39°13' W 076°35'0 0.0
2014-Nov-26 02:30N 39°13' W 076°35'0 0.0
2014-Nov-26 01:30N 39°13' W 076°35'0 0.0
2014-Nov-26 00:30N 39°13' W 076°35'0 0.0
2014-Nov-25 23:33N 39°13' W 076°35'0 0.0
2014-Nov-25 22:33N 39°13' W 076°35'0 0.0
2014-Nov-25 20:15N 39°13' W 076°35'0 0.0
2014-Nov-25 19:33N 39°13' W 076°35'0 0.0
2014-Nov-25 18:21N 39°13' W 076°35'0 0.0
2014-Nov-25 17:33N 39°13' W 076°35'0 0.0
2014-Nov-25 16:31N 39°13' W 076°35'0 0.0
2014-Nov-25 15:31N 39°13' W 076°35'0 0.0
2014-Nov-25 14:31N 39°13' W 076°35'0 0.0
2014-Nov-25 13:31N 39°13' W 076°35'0 0.0
2014-Nov-25 12:28N 39°13' W 076°35'0 0.0
2014-Nov-25 11:31N 39°13' W 076°35'0 0.0
2014-Nov-25 10:31N 39°13' W 076°35'0 0.0
2014-Nov-25 09:25N 39°13' W 076°35'0 0.0
2014-Nov-25 08:31N 39°13' W 076°35'0 0.0
2014-Nov-25 07:31N 39°13' W 076°35'0 0.0
2014-Nov-25 06:31N 39°13' W 076°35'0 0.0
2014-Nov-25 05:31N 39°13' W 076°35'0 0.0
2014-Nov-25 04:31N 39°13' W 076°35'0 0.0
2014-Nov-25 03:31N 39°13' W 076°35'0 0.0
2014-Nov-25 02:31N 39°13' W 076°35'0 0.0
2014-Nov-25 01:28N 39°13' W 076°35'0 0.0
2014-Nov-25 00:28N 39°13' W 076°35'0 0.0
2014-Nov-24 23:31N 39°13' W 076°35'0 0.0
2014-Nov-24 22:31N 39°13' W 076°35'0 0.0
2014-Nov-24 21:31N 39°13' W 076°35'0 0.0
2014-Nov-24 20:31N 39°13' W 076°35'0 0.0
2014-Nov-24 19:31N 39°13' W 076°35'0 0.0
2014-Nov-24 17:31N 39°13' W 076°35'0 0.0
2014-Nov-24 16:31N 39°13' W 076°35'0 0.0
2014-Nov-24 15:31N 39°13' W 076°35'0 0.0
2014-Nov-24 14:31N 39°13' W 076°35'0 0.0
2014-Nov-24 13:28N 39°13' W 076°35'0 0.0
2014-Nov-24 12:28N 39°13' W 076°35'0 0.0
2014-Nov-24 11:31N 39°13' W 076°35'0 0.0
2014-Nov-24 10:31N 39°13' W 076°35'0 0.0
2014-Nov-24 01:28N 39°13' W 076°35'0 0.0
2014-Nov-24 00:28N 39°13' W 076°35'0 0.0
2014-Nov-23 23:25N 39°13' W 076°35'0 0.0
2014-Nov-23 22:31N 39°13' W 076°35'0 0.0
2014-Nov-23 21:31N 39°13' W 076°35'0 0.0
2014-Nov-23 20:28N 39°13' W 076°35'0 0.0
2014-Nov-23 19:31N 39°13' W 076°35'0 0.0
2014-Nov-23 18:19N 39°13' W 076°35'0 0.0
2014-Nov-23 17:31N 39°13' W 076°35'0 0.0
2014-Nov-23 16:25N 39°13' W 076°35'0 0.0
2014-Nov-23 15:31N 39°13' W 076°35'0 0.0
2014-Nov-23 14:31N 39°13' W 076°35'0 0.0
2014-Nov-23 13:31N 39°13' W 076°35'0 0.0
2014-Nov-23 12:31N 39°13' W 076°35'0 0.0
2014-Nov-23 11:31N 39°13' W 076°35'0 0.0
2014-Nov-23 10:31N 39°13' W 076°35'0 0.0
2014-Nov-23 09:31N 39°13' W 076°35'0 0.0
2014-Nov-23 08:31N 39°13' W 076°35'0 0.0
2014-Nov-23 07:31N 39°13' W 076°35'0 0.0
2014-Nov-23 06:31N 39°13' W 076°35'0 0.0
2014-Nov-23 05:31N 39°13' W 076°35'0 0.0
2014-Nov-23 04:31N 39°13' W 076°35'0 0.0
2014-Nov-23 03:31N 39°13' W 076°35'0 0.0
2014-Nov-23 02:31N 39°13' W 076°35'0 0.0
2014-Nov-23 01:19N 39°13' W 076°35'0 0.0
2014-Nov-23 00:31N 39°13' W 076°35'0 0.0
2014-Nov-22 23:31N 39°13' W 076°35'0 0.0
2014-Nov-22 22:28N 39°13' W 076°35'0 0.0
2014-Nov-22 21:25N 39°13' W 076°35'0 0.0
2014-Nov-22 19:31N 39°13' W 076°35'3 2.8
2014-Nov-22 18:33N 39°13' W 076°32'6 6.4
2014-Nov-22 17:33N 39°09' W 076°25'7 6.5
2014-Nov-22 16:33N 39°03' W 076°23'7 6.5
2014-Nov-22 15:33N 38°56' W 076°24'1 0.1
2014-Nov-21 15:34N 38°58' W 076°24'8 7.5
2014-Nov-21 14:26N 39°06' W 076°24'6 6.8
2014-Nov-21 13:33N 39°11' W 076°28'6 5.6
2014-Nov-21 12:31N 39°13' W 076°35'0 0.0
2014-Nov-20 19:13N 39°13' W 076°35'0 0.0
2014-Nov-20 16:25N 39°13' W 076°35'0 0.0
2014-Nov-20 15:28N 39°13' W 076°35'0 0.0
2014-Nov-20 14:31N 39°13' W 076°35'0 0.0
2014-Nov-20 13:29N 39°13' W 076°35'0 0.0
2014-Nov-20 12:29N 39°13' W 076°35'0 0.0
2014-Nov-20 11:23N 39°13' W 076°35'0 0.0
2014-Nov-20 10:29N 39°13' W 076°35'0 0.0
2014-Nov-20 09:29N 39°13' W 076°35'0 0.0
2014-Nov-20 08:29N 39°13' W 076°35'0 0.0
2014-Nov-20 07:29N 39°13' W 076°35'0 0.0
2014-Nov-20 06:23N 39°13' W 076°35'0 0.0
2014-Nov-20 05:29N 39°13' W 076°35'0 0.0
2014-Nov-20 04:32N 39°13' W 076°35'0 0.0
2014-Nov-20 03:29N 39°13' W 076°35'0 0.0
2014-Nov-20 02:23N 39°13' W 076°35'0 0.0
2014-Nov-20 01:32N 39°13' W 076°35'0 0.0
2014-Nov-20 00:29N 39°13' W 076°35'0 0.0
2014-Nov-19 23:29N 39°13' W 076°35'0 0.0
2014-Nov-19 22:29N 39°13' W 076°35'0 0.0
2014-Nov-19 21:32N 39°13' W 076°35'0 0.0
2014-Nov-19 19:26N 39°13' W 076°35'0 0.0
2014-Nov-19 18:31N 39°13' W 076°35'0 0.0
2014-Nov-19 17:16N 39°13' W 076°35'0 0.0
2014-Nov-19 16:28N 39°13' W 076°35'0 0.0
2014-Nov-19 15:28N 39°13' W 076°35'0 0.0
2014-Nov-19 14:28N 39°13' W 076°35'0 0.0
2014-Nov-19 13:28N 39°13' W 076°35'0 0.0
2014-Nov-19 12:31N 39°13' W 076°35'0 0.0
2014-Nov-19 11:31N 39°13' W 076°35'0 0.0
2014-Nov-19 10:31N 39°13' W 076°35'0 0.0
2014-Nov-19 09:31N 39°13' W 076°35'0 0.0
2014-Nov-19 08:31N 39°13' W 076°35'0 0.0
2014-Nov-19 07:31N 39°13' W 076°35'0 0.0
2014-Nov-19 06:31N 39°13' W 076°35'0 0.0
2014-Nov-19 05:31N 39°13' W 076°35'0 0.0
2014-Nov-19 04:31N 39°13' W 076°35'0 0.0
2014-Nov-19 03:31N 39°13' W 076°35'0 0.0
2014-Nov-19 02:31N 39°13' W 076°35'0 0.0
2014-Nov-19 01:28N 39°13' W 076°35'0 0.0
2014-Nov-19 00:31N 39°13' W 076°35'0 0.0
2014-Nov-18 23:31N 39°13' W 076°35'0 0.0
2014-Nov-18 22:28N 39°13' W 076°35'0 0.0
2014-Nov-18 21:31N 39°13' W 076°35'0 0.0
2014-Nov-18 20:31N 39°13' W 076°35'0 0.0
2014-Nov-18 19:31N 39°13' W 076°35'0 0.0
2014-Nov-18 18:13N 39°13' W 076°35'0 0.0
2014-Nov-18 15:28N 39°13' W 076°35'0 0.0
2014-Nov-18 14:16N 39°13' W 076°35'0 0.0
2014-Nov-18 13:25N 39°13' W 076°35'0 0.0
2014-Nov-18 12:31N 39°13' W 076°35'0 0.0
2014-Nov-18 11:31N 39°13' W 076°35'0 0.0
2014-Nov-18 10:31N 39°13' W 076°35'0 0.0
2014-Nov-18 09:31N 39°13' W 076°35'0 0.0
2014-Nov-18 08:31N 39°13' W 076°35'0 0.0
2014-Nov-18 07:28N 39°13' W 076°35'0 0.0
2014-Nov-18 06:31N 39°13' W 076°35'0 0.0
2014-Nov-18 05:31N 39°13' W 076°35'0 0.0
2014-Nov-18 04:31N 39°13' W 076°35'0 0.0
2014-Nov-18 03:31N 39°13' W 076°35'0 0.0
2014-Nov-18 02:31N 39°13' W 076°35'0 0.0
2014-Nov-18 01:31N 39°13' W 076°35'0 0.0
2014-Nov-18 00:31N 39°13' W 076°35'0 0.0
2014-Nov-17 23:31N 39°13' W 076°35'0 0.0
2014-Nov-17 22:25N 39°13' W 076°35'0 0.0
2014-Nov-17 19:31N 39°13' W 076°35'0 0.0
2014-Nov-17 05:32N 39°13' W 076°35'0 0.0
2014-Nov-17 04:32N 39°13' W 076°35'0 0.0
2014-Nov-17 03:32N 39°13' W 076°35'0 0.0
2014-Nov-17 02:26N 39°13' W 076°35'0 0.0
2014-Nov-17 01:32N 39°13' W 076°35'0 0.0
2014-Nov-16 22:20N 39°13' W 076°35'0 0.0
2014-Nov-16 21:26N 39°13' W 076°35'0 0.0
2014-Nov-16 20:26N 39°13' W 076°35'0 0.0
2014-Nov-16 19:32N 39°13' W 076°35'0 0.0
2014-Nov-16 18:32N 39°13' W 076°35'0 0.0
2014-Nov-16 17:32N 39°13' W 076°35'0 0.0
2014-Nov-16 16:32N 39°13' W 076°35'0 0.0
2014-Nov-16 15:32N 39°13' W 076°35'0 0.0
2014-Nov-16 14:32N 39°13' W 076°35'0 0.0
2014-Nov-16 13:32N 39°13' W 076°35'0 0.0
2014-Nov-16 12:32N 39°13' W 076°35'0 0.0
2014-Nov-16 11:32N 39°13' W 076°35'0 0.0
2014-Nov-16 10:32N 39°13' W 076°35'0 0.0
2014-Nov-16 09:32N 39°13' W 076°35'0 0.0
2014-Nov-16 08:32N 39°13' W 076°35'0 0.0
2014-Nov-16 07:26N 39°13' W 076°35'0 0.0
2014-Nov-16 06:32N 39°13' W 076°35'  
Track history (hours):
 
Tides and Currents Weather Stations Pressure Air Temp Water Temp Dewpoint Dewpoint Depression Visibility Wind Speed Wind Dir Waves Ship Positions

MiSS Donna

Owner: OCEAN MARINE BOAT RENTALS,LLC, MORGAN CITY, LA. More information available from US FCC via Universal Licensing System and Coast Guard Vessel Documentation Center.

Last reported at 2014-Nov-26 05:33 UTC. Time now 2014-Nov-26 06:31 UTC.
Position N 39°13' W 076°35'.

Length 21 m; draft 2.7 m.

Type: Towing. MMSI: 367515090.

Date/timePositionNaut miles runAvg speedWind from/ knotsBaromVisibWave heightAir tempDewpointWater temp
2014-Nov-26 05:33N 39°13' W 076°35'0 0.0
2014-Nov-26 04:09N 39°13' W 076°35'0 0.0
2014-Nov-26 03:27N 39°13' W 076°35'0 0.0
2014-Nov-26 02:30N 39°13' W 076°35'0 0.0
2014-Nov-26 01:30N 39°13' W 076°35'0 0.0
2014-Nov-26 00:30N 39°13' W 076°35'0 0.0
2014-Nov-25 23:33N 39°13' W 076°35'0 0.0
2014-Nov-25 22:33N 39°13' W 076°35'0 0.0
2014-Nov-25 20:15N 39°13' W 076°35'0 0.0
2014-Nov-25 19:33N 39°13' W 076°35'0 0.0
2014-Nov-25 18:21N 39°13' W 076°35'0 0.0
2014-Nov-25 17:33N 39°13' W 076°35'0 0.0
2014-Nov-25 16:31N 39°13' W 076°35'0 0.0
2014-Nov-25 15:31N 39°13' W 076°35'0 0.0
2014-Nov-25 14:31N 39°13' W 076°35'0 0.0
2014-Nov-25 13:31N 39°13' W 076°35'0 0.0
2014-Nov-25 12:28N 39°13' W 076°35'0 0.0
2014-Nov-25 11:31N 39°13' W 076°35'0 0.0
2014-Nov-25 10:31N 39°13' W 076°35'0 0.0
2014-Nov-25 09:25N 39°13' W 076°35'0 0.0
2014-Nov-25 08:31N 39°13' W 076°35'0 0.0
2014-Nov-25 07:31N 39°13' W 076°35'0 0.0
2014-Nov-25 06:31N 39°13' W 076°35'0 0.0
2014-Nov-25 05:31N 39°13' W 076°35'0 0.0
2014-Nov-25 04:31N 39°13' W 076°35'0 0.0
2014-Nov-25 03:31N 39°13' W 076°35'0 0.0
2014-Nov-25 02:31N 39°13' W 076°35'0 0.0
2014-Nov-25 01:28N 39°13' W 076°35'0 0.0
2014-Nov-25 00:28N 39°13' W 076°35'0 0.0
2014-Nov-24 23:31N 39°13' W 076°35'0 0.0
2014-Nov-24 22:31N 39°13' W 076°35'0 0.0
2014-Nov-24 21:31N 39°13' W 076°35'0 0.0
2014-Nov-24 20:31N 39°13' W 076°35'0 0.0
2014-Nov-24 19:31N 39°13' W 076°35'0 0.0
2014-Nov-24 17:31N 39°13' W 076°35'0 0.0
2014-Nov-24 16:31N 39°13' W 076°35'0 0.0
2014-Nov-24 15:31N 39°13' W 076°35'0 0.0
2014-Nov-24 14:31N 39°13' W 076°35'0 0.0
2014-Nov-24 13:28N 39°13' W 076°35'0 0.0
2014-Nov-24 12:28N 39°13' W 076°35'0 0.0
2014-Nov-24 11:31N 39°13' W 076°35'0 0.0
2014-Nov-24 10:31N 39°13' W 076°35'0 0.0
2014-Nov-24 01:28N 39°13' W 076°35'0 0.0
2014-Nov-24 00:28N 39°13' W 076°35'0 0.0
2014-Nov-23 23:25N 39°13' W 076°35'0 0.0
2014-Nov-23 22:31N 39°13' W 076°35'0 0.0
2014-Nov-23 21:31N 39°13' W 076°35'0 0.0
2014-Nov-23 20:28N 39°13' W 076°35'0 0.0
2014-Nov-23 19:31N 39°13' W 076°35'0 0.0
2014-Nov-23 18:19N 39°13' W 076°35'0 0.0
2014-Nov-23 17:31N 39°13' W 076°35'0 0.0
2014-Nov-23 16:25N 39°13' W 076°35'0 0.0
2014-Nov-23 15:31N 39°13' W 076°35'0 0.0
2014-Nov-23 14:31N 39°13' W 076°35'0 0.0
2014-Nov-23 13:31N 39°13' W 076°35'0 0.0
2014-Nov-23 12:31N 39°13' W 076°35'0 0.0
2014-Nov-23 11:31N 39°13' W 076°35'0 0.0
2014-Nov-23 10:31N 39°13' W 076°35'0 0.0
2014-Nov-23 09:31N 39°13' W 076°35'0 0.0
2014-Nov-23 08:31N 39°13' W 076°35'0 0.0
2014-Nov-23 07:31N 39°13' W 076°35'0 0.0
2014-Nov-23 06:31N 39°13' W 076°35'0 0.0
2014-Nov-23 05:31N 39°13' W 076°35'0 0.0
2014-Nov-23 04:31N 39°13' W 076°35'0 0.0
2014-Nov-23 03:31N 39°13' W 076°35'0 0.0
2014-Nov-23 02:31N 39°13' W 076°35'0 0.0
2014-Nov-23 01:19N 39°13' W 076°35'0 0.0
2014-Nov-23 00:31N 39°13' W 076°35'0 0.0
2014-Nov-22 23:31N 39°13' W 076°35'0 0.0
2014-Nov-22 22:28N 39°13' W 076°35'0 0.0
2014-Nov-22 21:25N 39°13' W 076°35'0 0.0
2014-Nov-22 19:31N 39°13' W 076°35'3 2.8
2014-Nov-22 18:33N 39°13' W 076°32'6 6.4
2014-Nov-22 17:33N 39°09' W 076°25'7 6.5
2014-Nov-22 16:33N 39°03' W 076°23'7 6.5
2014-Nov-22 15:33N 38°56' W 076°24'1 0.1
2014-Nov-21 15:34N 38°58' W 076°24'8 7.5
2014-Nov-21 14:26N 39°06' W 076°24'6 6.8
2014-Nov-21 13:33N 39°11' W 076°28'6 5.6
2014-Nov-21 12:31N 39°13' W 076°35'0 0.0
2014-Nov-20 19:13N 39°13' W 076°35'0 0.0
2014-Nov-20 16:25N 39°13' W 076°35'0 0.0
2014-Nov-20 15:28N 39°13' W 076°35'0 0.0
2014-Nov-20 14:31N 39°13' W 076°35'0 0.0
2014-Nov-20 13:29N 39°13' W 076°35'0 0.0
2014-Nov-20 12:29N 39°13' W 076°35'0 0.0
2014-Nov-20 11:23N 39°13' W 076°35'0 0.0
2014-Nov-20 10:29N 39°13' W 076°35'0 0.0
2014-Nov-20 09:29N 39°13' W 076°35'0 0.0
2014-Nov-20 08:29N 39°13' W 076°35'0 0.0
2014-Nov-20 07:29N 39°13' W 076°35'0 0.0
2014-Nov-20 06:23N 39°13' W 076°35'0 0.0
2014-Nov-20 05:29N 39°13' W 076°35'0 0.0
2014-Nov-20 04:32N 39°13' W 076°35'0 0.0
2014-Nov-20 03:29N 39°13' W 076°35'0 0.0
2014-Nov-20 02:23N 39°13' W 076°35'0 0.0
2014-Nov-20 01:32N 39°13' W 076°35'0 0.0
2014-Nov-20 00:29N 39°13' W 076°35'0 0.0
2014-Nov-19 23:29N 39°13' W 076°35'0 0.0
2014-Nov-19 22:29N 39°13' W 076°35'0 0.0
2014-Nov-19 21:32N 39°13' W 076°35'0 0.0
2014-Nov-19 19:26N 39°13' W 076°35'0 0.0
2014-Nov-19 18:31N 39°13' W 076°35'0 0.0
2014-Nov-19 17:16N 39°13' W 076°35'0 0.0
2014-Nov-19 16:28N 39°13' W 076°35'0 0.0
2014-Nov-19 15:28N 39°13' W 076°35'0 0.0
2014-Nov-19 14:28N 39°13' W 076°35'0 0.0
2014-Nov-19 13:28N 39°13' W 076°35'0 0.0
2014-Nov-19 12:31N 39°13' W 076°35'0 0.0
2014-Nov-19 11:31N 39°13' W 076°35'0 0.0
2014-Nov-19 10:31N 39°13' W 076°35'0 0.0
2014-Nov-19 09:31N 39°13' W 076°35'0 0.0
2014-Nov-19 08:31N 39°13' W 076°35'0 0.0
2014-Nov-19 07:31N 39°13' W 076°35'0 0.0
2014-Nov-19 06:31N 39°13' W 076°35'0 0.0
2014-Nov-19 05:31N 39°13' W 076°35'0 0.0
2014-Nov-19 04:31N 39°13' W 076°35'0 0.0
2014-Nov-19 03:31N 39°13' W 076°35'0 0.0
2014-Nov-19 02:31N 39°13' W 076°35'0 0.0
2014-Nov-19 01:28N 39°13' W 076°35'0 0.0
2014-Nov-19 00:31N 39°13' W 076°35'0 0.0
2014-Nov-18 23:31N 39°13' W 076°35'0 0.0
2014-Nov-18 22:28N 39°13' W 076°35'0 0.0
2014-Nov-18 21:31N 39°13' W 076°35'0 0.0
2014-Nov-18 20:31N 39°13' W 076°35'0 0.0
2014-Nov-18 19:31N 39°13' W 076°35'0 0.0
2014-Nov-18 18:13N 39°13' W 076°35'0 0.0
2014-Nov-18 15:28N 39°13' W 076°35'0 0.0
2014-Nov-18 14:16N 39°13' W 076°35'0 0.0
2014-Nov-18 13:25N 39°13' W 076°35'0 0.0
2014-Nov-18 12:31N 39°13' W 076°35'0 0.0
2014-Nov-18 11:31N 39°13' W 076°35'0 0.0
2014-Nov-18 10:31N 39°13' W 076°35'0 0.0
2014-Nov-18 09:31N 39°13' W 076°35'0 0.0
2014-Nov-18 08:31N 39°13' W 076°35'0 0.0
2014-Nov-18 07:28N 39°13' W 076°35'0 0.0
2014-Nov-18 06:31N 39°13' W 076°35'0 0.0
2014-Nov-18 05:31N 39°13' W 076°35'0 0.0
2014-Nov-18 04:31N 39°13' W 076°35'0 0.0
2014-Nov-18 03:31N 39°13' W 076°35'0 0.0
2014-Nov-18 02:31N 39°13' W 076°35'0 0.0
2014-Nov-18 01:31N 39°13' W 076°35'0 0.0
2014-Nov-18 00:31N 39°13' W 076°35'0 0.0
2014-Nov-17 23:31N 39°13' W 076°35'0 0.0
2014-Nov-17 22:25N 39°13' W 076°35'0 0.0
2014-Nov-17 19:31N 39°13' W 076°35'0 0.0
2014-Nov-17 05:32N 39°13' W 076°35'0 0.0
2014-Nov-17 04:32N 39°13' W 076°35'0 0.0
2014-Nov-17 03:32N 39°13' W 076°35'0 0.0
2014-Nov-17 02:26N 39°13' W 076°35'0 0.0
2014-Nov-17 01:32N 39°13' W 076°35'0 0.0
2014-Nov-16 22:20N 39°13' W 076°35'0 0.0
2014-Nov-16 21:26N 39°13' W 076°35'0 0.0
2014-Nov-16 20:26N 39°13' W 076°35'0 0.0
2014-Nov-16 19:32N 39°13' W 076°35'0 0.0
2014-Nov-16 18:32N 39°13' W 076°35'0 0.0
2014-Nov-16 17:32N 39°13' W 076°35'0 0.0
2014-Nov-16 16:32N 39°13' W 076°35'0 0.0
2014-Nov-16 15:32N 39°13' W 076°35'0 0.0
2014-Nov-16 14:32N 39°13' W 076°35'0 0.0
2014-Nov-16 13:32N 39°13' W 076°35'0 0.0
2014-Nov-16 12:32N 39°13' W 076°35'0 0.0
2014-Nov-16 11:32N 39°13' W 076°35'0 0.0
2014-Nov-16 10:32N 39°13' W 076°35'0 0.0
2014-Nov-16 09:32N 39°13' W 076°35'0 0.0
2014-Nov-16 08:32N 39°13' W 076°35'0 0.0
2014-Nov-16 07:26N 39°13' W 076°35'0 0.0
2014-Nov-16 06:32N 39°13' W 076°35'  

Dump ship's entire track history